Hourly Data Report for January 02, 2022

BANCROFT AUTO
ONTARIO
Current Station Operator: ECCC - MSC

45°04'17.000" N
77°52'44.000" W
330.70 m
616I001
71294
WRK

Download Data

Hourly Data (January 2022)
Hourly Data Report for January 2, 2022
TIME
LST
Temp Definition
°C
Dew Point Definition
°C
Rel Hum Definition
%
Precip. Amount Definition
mm

Wind Dir Definition
10's deg

Wind Spd Definition
km/h
Visibility Definition
km
Stn Press Definition
kPa
Hmdx Definition


Wind Chill Definition


Weather Definition


00:00 -9.9 -13.2 77 0.0 1 12   97.04   -16 LegendNANA
01:00 -10.7 -14.6 73 0.0 3 12   97.02   -17 LegendNANA
02:00 -11.2 -15.1 73 0.0 1 11   97.08   -17 LegendNANA
03:00 -11.6 -16.3 68 0.0 35 9   97.05   -17 LegendNANA
04:00 -12.1 -17.2 66 0.0 36 12   96.98   -18 LegendNANA
05:00 -12.2 -17.4 65 0.0 1 14   96.97   -19 LegendNANA
06:00 -12.3 -17.4 66 0.0 36 11   97.01   -18 LegendNANA
07:00 -12.3 -17.2 67 0.0 35 9   97.06   -18 LegendNANA
08:00 -12.4 -17.7 64 0.0 35 11   97.12   -18 LegendNANA
09:00 -12.4 -18.1 62 0.0 34 10   97.17   -18 LegendNANA
10:00 -12.5 -18.7 60 0.0 36 10   97.26   -18 LegendNANA
11:00 -12.2 -18.6 59 0.0 35 12   97.26   -19 LegendNANA
12:00 -11.8 -19.1 55 0.0 35 11   97.24   -18 LegendNANA
13:00 -11.1 -19.0 52 0.0 35 11   97.29   -17 LegendNANA
14:00 -10.7 -19.0 51 0.0 35 12   97.32   -17 LegendNANA
15:00 -10.6 -18.7 52 0.0 1 12   97.38   -17 LegendNANA
16:00 -10.9 -18.8 52 0.0 36 8   97.49   -16 LegendNANA
17:00 -11.8 -18.6 57 0.0 1 7   97.63   -16 LegendNANA
18:00 -13.0 -18.9 61 0.0 33 9   97.78   -18 LegendNANA
19:00 -14.5 -19.4 66 0.0 35 4   97.89   -17 LegendNANA
20:00 -15.4 -19.3 72 0.0 33 6   98.01   -20 LegendNANA
21:00 -16.5 -19.9 75 0.0 36 6   98.03   -21 LegendNANA
22:00 -17.1 -20.1 77 0.0 31 7   98.12   -22 LegendNANA
23:00 -18.0 -20.7 79 0.0 34 5   98.09   -22 LegendNANA

Notes on Data Quality.

Legend

  • E = Estimated
  • M = Missing
  • NA = Not Available*
  • [empty] = Indicates an unobserved value
Date modified: